USA 342

Last updated on Wed Oct 29 2025 00:02:51 GMT+0000 (Coordinated Universal Time)

1 55263U 23008A 25301.47673597 .00000149 00000+0 00000+0 0 9995 2 55263 0.0120 266.6598 0000457 3.2271 322.6354 1.00272295 10193
UTC large
Height (km)
Speed (km/s)
/
Latitude / Longitude
Inclination (degrees)
Orbital Period (minutes)
Azimuth
Elevation
Range (km)
Doppler Factor

Next 0 passes for location: London (51.5072 / 0.1276)

Sorry there are no passes over London.